Powrót do katalogu

COSMOS 1249 FUEL CORE

AktywnyLEO
NORAD 12551·DEBRIS·🇷🇺 Russia

Wystrzelony Mar 5, 1981 z Baikonur Cosmodrome

Loading…

Następne Przeloty (najbliższe 24 godziny)

TLE

ŚwieżeSource: Space-Track

Epoka: Sep 14, 2026, 05:30 UTC

1 12551U 81021C   26257.22919370 -.00000074  00000-0  13194-4 0  9995
2 12551  64.9683 339.5239 0044563 196.1783 163.7861 13.90551625313852

Śledź COSMOS 1249 FUEL CORE w czasie rzeczywistym z AllMySat

Download on the App Store